QPF
0.01 0.00 0.01 0.02 0.01 0.01 0.00 0.00 0.00 0.00 0.00 0.00 0.00 0.00 0.00 0.00 0.00 0.01 0.01 0.01 0.02 0.01 0.01 0.02 0.03 0.02 0.02 0.02 0.02 0.02 0.02 0.01 0.01 0.01 0.01 0.01 0.01 0.02 0.03 0.03 0.03 0.04 0.05 0.05 0.05 0.05 0.04 0.04 0.03
0.01 0.01 0.01 0.02 0.01 0.01 0.00 0.00 0.00 0.00 0.01 0.01 0.00 0.00 0.00 0.00 0.00 0.01 0.01 0.01 0.01 0.01 0.02 0.02 0.04 0.02 0.02 0.02 0.02 0.02 0.02 0.02 0.01 0.01 0.01 0.01 0.01 0.01 0.03 0.04 0.04 0.04 0.04 0.04 0.05 0.06 0.04 0.03 0.03
0.03 0.02 0.02 0.02 0.01 0.00 0.00 0.00 0.00 0.00 0.00 0.01 0.01 0.01 0.00 0.00 0.00 0.01 0.01 0.01 0.01 0.02 0.02 0.04 0.06 0.04 0.02 0.02 0.02 0.02 0.02 0.02 0.01 0.01 0.01 0.02 0.01 0.01 0.01 0.03 0.03 0.03 0.03 0.04 0.06 0.07 0.05 0.03 0.03
0.04 0.05 0.03 0.02 0.01 0.00 0.00 0.00 0.00 0.00 0.00 0.01 0.01 0.01 0.01 0.00 0.01 0.01 0.01 0.02 0.02 0.03 0.03 0.05 0.07 0.05 0.04 0.04 0.03 0.02 0.03 0.03 0.02 0.01 0.02 0.02 0.02 0.01 0.01 0.03 0.03 0.02 0.02 0.03 0.05 0.07 0.06 0.05 0.04
0.03 0.05 0.05 0.02 0.01 0.00 0.00 0.00 0.00 0.00 0.00 0.01 0.01 0.02 0.02 0.02 0.01 0.01 0.02 0.03 0.02 0.03 0.04 0.05 0.07 0.07 0.05 0.05 0.04 0.03 0.03 0.04 0.04 0.03 0.03 0.02 0.02 0.01 0.01 0.01 0.03 0.02 0.02 0.02 0.03 0.04 0.05 0.04 0.03
0.05 0.03 0.03 0.03 0.01 0.01 0.01 0.00 0.00 0.00 0.00 0.00 0.01 0.02 0.05 0.03 0.01 0.02 0.04 0.04 0.03 0.03 0.05 0.05 0.07 0.07 0.06 0.05 0.05 0.05 0.05 0.05 0.06 0.05 0.04 0.02 0.01 0.01 0.01 0.01 0.02 0.03 0.03 0.02 0.02 0.03 0.05 0.04 0.02
0.06 0.05 0.02 0.01 0.01 0.01 0.01 0.00 0.00 0.00 0.00 0.00 0.01 0.02 0.06 0.04 0.02 0.02 0.05 0.06 0.05 0.06 0.08 0.08 0.08 0.08 0.07 0.05 0.05 0.06 0.06 0.06 0.07 0.06 0.05 0.02 0.02 0.01 0.01 0.01 0.02 0.03 0.02 0.02 0.02 0.03 0.05 0.05 0.03
0.06 0.06 0.03 0.01 0.01 0.01 0.00 0.00 0.00 0.00 0.00 0.00 0.00 0.01 0.04 0.04 0.03 0.03 0.08 0.10 0.08 0.09 0.10 0.12 0.10 0.09 0.06 0.05 0.05 0.06 0.06 0.06 0.06 0.07 0.06 0.02 0.02 0.02 0.01 0.01 0.02 0.02 0.02 0.02 0.02 0.03 0.05 0.05 0.03
0.05 0.07 0.05 0.02 0.01 0.01 0.00 0.00 0.01 0.00 0.00 0.00 0.00 0.00 0.01 0.03 0.03 0.03 0.08 0.12 0.12 0.10 0.10 0.11 0.10 0.09 0.07 0.06 0.07 0.08 0.07 0.06 0.06 0.07 0.07 0.04 0.02 0.02 0.01 0.01 0.01 0.02 0.02 0.02 0.02 0.03 0.04 0.06 0.05
0.03 0.06 0.05 0.02 0.01 0.01 0.00 0.00 0.01 0.00 0.00 0.00 0.01 0.01 0.01 0.02 0.02 0.03 0.06 0.08 0.15 0.13 0.11 0.11 0.10 0.09 0.07 0.06 0.06 0.08 0.08 0.07 0.07 0.06 0.08 0.06 0.02 0.02 0.01 0.01 0.01 0.02 0.03 0.03 0.03 0.03 0.03 0.07 0.07
0.03 0.03 0.02 0.01 0.01 0.01 0.01 0.01 0.01 0.00 0.01 0.00 0.01 0.01 0.01 0.03 0.04 0.04 0.05 0.07 0.10 0.14 0.13 0.11 0.11 0.10 0.09 0.08 0.07 0.08 0.08 0.07 0.06 0.06 0.07 0.09 0.05 0.02 0.02 0.01 0.02 0.03 0.03 0.03 0.03 0.03 0.03 0.05 0.07
0.02 0.01 0.02 0.01 0.01 0.01 0.01 0.01 0.01 0.01 0.00 0.00 0.00 0.01 0.01 0.03 0.04 0.06 0.07 0.07 0.08 0.11 0.12 0.12 0.13 0.12 0.10 0.08 0.07 0.07 0.08 0.08 0.07 0.06 0.06 0.09 0.09 0.04 0.02 0.01 0.01 0.02 0.03 0.03 0.02 0.02 0.03 0.04 0.07
0.01 0.01 0.01 0.01 0.01 0.01 0.01 0.02 0.01 0.00 0.00 0.01 0.01 0.01 0.01 0.02 0.04 0.07 0.12 0.10 0.11 0.09 0.07 0.10 0.14 0.14 0.13 0.09 0.07 0.07 0.07 0.08 0.08 0.07 0.06 0.08 0.10 0.08 0.03 0.02 0.01 0.01 0.03 0.03 0.03 0.02 0.03 0.03 0.05
0.01 0.01 0.01 0.01 0.01 0.02 0.02 0.02 0.01 0.01 0.00 0.01 0.01 0.02 0.01 0.01 0.02 0.07 0.15 0.14 0.13 0.12 0.09 0.08 0.10 0.12 0.14 0.14 0.09 0.06 0.06 0.08 0.11 0.10 0.07 0.07 0.09 0.09 0.06 0.03 0.02 0.01 0.03 0.04 0.04 0.03 0.03 0.03 0.04
0.01 0.01 0.01 0.01 0.02 0.02 0.03 0.03 0.02 0.01 0.01 0.02 0.02 0.01 0.01 0.01 0.02 0.05 0.13 0.16 0.13 0.14 0.13 0.10 0.09 0.08 0.10 0.13 0.12 0.09 0.07 0.06 0.09 0.12 0.13 0.10 0.08 0.09 0.08 0.05 0.02 0.02 0.03 0.05 0.06 0.04 0.03 0.04 0.04
0.02 0.02 0.01 0.01 0.01 0.02 0.04 0.05 0.02 0.01 0.02 0.02 0.02 0.01 0.01 0.01 0.01 0.02 0.07 0.15 0.16 0.17 0.17 0.13 0.11 0.09 0.08 0.09 0.12 0.12 0.09 0.07 0.07 0.09 0.14 0.16 0.11 0.07 0.08 0.06 0.04 0.02 0.03 0.05 0.07 0.07 0.05 0.04 0.04
0.03 0.03 0.02 0.01 0.01 0.02 0.04 0.04 0.02 0.02 0.03 0.03 0.01 0.01 0.01 0.01 0.01 0.01 0.03 0.10 0.15 0.15 0.18 0.15 0.13 0.11 0.08 0.08 0.11 0.12 0.10 0.08 0.07 0.09 0.12 0.16 0.16 0.10 0.07 0.07 0.06 0.04 0.03 0.03 0.06 0.07 0.06 0.05 0.05
0.02 0.02 0.02 0.01 0.01 0.02 0.02 0.03 0.02 0.02 0.03 0.02 0.01 0.01 0.01 0.01 0.01 0.01 0.03 0.06 0.12 0.12 0.13 0.15 0.14 0.12 0.11 0.08 0.08 0.11 0.11 0.09 0.07 0.07 0.10 0.14 0.16 0.14 0.09 0.07 0.07 0.05 0.03 0.03 0.04 0.06 0.06 0.05 0.05
0.01 0.02 0.02 0.01 0.01 0.02 0.02 0.02 0.02 0.02 0.02 0.02 0.02 0.01 0.01 0.01 0.01 0.01 0.02 0.05 0.08 0.10 0.10 0.11 0.11 0.10 0.12 0.11 0.09 0.10 0.11 0.10 0.08 0.07 0.09 0.14 0.15 0.15 0.12 0.08 0.07 0.06 0.05 0.04 0.05 0.06 0.06 0.05 0.05
0.02 0.02 0.02 0.01 0.02 0.03 0.02 0.02 0.03 0.02 0.02 0.02 0.01 0.01 0.01 0.01 0.01 0.01 0.02 0.05 0.06 0.08 0.08 0.08 0.07 0.07 0.10 0.13 0.10 0.11 0.13 0.12 0.10 0.09 0.09 0.14 0.16 0.15 0.14 0.12 0.10 0.09 0.08 0.07 0.08 0.08 0.07 0.07 0.06
0.01 0.02 0.01 0.01 0.02 0.03 0.03 0.03 0.03 0.03 0.02 0.01 0.01 0.01 0.01 0.01 0.01 0.01 0.02 0.05 0.06 0.06 0.06 0.06 0.06 0.07 0.07 0.10 0.11 0.12 0.15 0.14 0.13 0.11 0.11 0.15 0.17 0.16 0.15 0.14 0.13 0.11 0.11 0.11 0.12 0.13 0.10 0.09 0.08
0.01 0.00 0.01 0.01 0.02 0.03 0.04 0.06 0.03 0.03 0.02 0.02 0.02 0.01 0.01 0.01 0.02 0.02 0.03 0.04 0.07 0.06 0.06 0.06 0.07 0.07 0.07 0.09 0.11 0.13 0.15 0.15 0.12 0.12 0.13 0.16 0.20 0.18 0.14 0.12 0.10 0.09 0.09 0.10 0.12 0.15 0.13 0.11 0.10
0.02 0.01 0.01 0.01 0.02 0.03 0.03 0.06 0.03 0.02 0.02 0.02 0.03 0.02 0.01 0.01 0.03 0.04 0.03 0.04 0.07 0.06 0.06 0.07 0.09 0.08 0.07 0.08 0.10 0.15 0.16 0.16 0.13 0.10 0.11 0.12 0.16 0.17 0.12 0.10 0.09 0.07 0.07 0.09 0.11 0.13 0.13 0.11 0.10
0.02 0.02 0.01 0.02 0.04 0.04 0.02 0.04 0.03 0.02 0.02 0.02 0.02 0.02 0.01 0.01 0.04 0.05 0.05 0.06 0.06 0.07 0.06 0.06 0.07 0.06 0.06 0.08 0.11 0.16 0.17 0.16 0.16 0.12 0.11 0.11 0.13 0.16 0.12 0.11 0.11 0.09 0.08 0.07 0.09 0.12 0.13 0.11 0.08
0.02 0.03 0.04 0.05 0.05 0.03 0.01 0.02 0.03 0.02 0.02 0.02 0.02 0.02 0.02 0.01 0.03 0.06 0.07 0.09 0.06 0.06 0.06 0.06 0.07 0.06 0.05 0.07 0.09 0.13 0.15 0.15 0.16 0.16 0.12 0.11 0.11 0.15 0.13 0.11 0.10 0.09 0.07 0.06 0.06 0.09 0.12 0.11 0.09
0.02 0.03 0.03 0.03 0.03 0.02 0.02 0.03 0.02 0.03 0.03 0.02 0.02 0.03 0.03 0.02 0.03 0.05 0.08 0.10 0.07 0.06 0.05 0.04 0.04 0.06 0.05 0.06 0.07 0.11 0.13 0.14 0.15 0.14 0.12 0.09 0.09 0.11 0.11 0.10 0.10 0.08 0.07 0.06 0.06 0.07 0.10 0.10 0.08
0.02 0.02 0.02 0.03 0.02 0.02 0.03 0.04 0.03 0.02 0.02 0.02 0.03 0.04 0.04 0.04 0.04 0.06 0.09 0.11 0.09 0.06 0.05 0.04 0.04 0.06 0.07 0.07 0.07 0.08 0.09 0.11 0.13 0.12 0.11 0.10 0.09 0.10 0.11 0.09 0.09 0.08 0.06 0.06 0.06 0.07 0.08 0.08 0.08
0.02 0.02 0.02 0.02 0.02 0.02 0.02 0.03 0.05 0.04 0.03 0.03 0.03 0.05 0.06 0.06 0.07 0.07 0.08 0.11 0.10 0.07 0.04 0.04 0.05 0.06 0.08 0.08 0.07 0.08 0.08 0.08 0.13 0.13 0.10 0.10 0.10 0.10 0.10 0.11 0.10 0.08 0.06 0.05 0.05 0.05 0.06 0.08 0.09
0.03 0.03 0.02 0.02 0.02 0.02 0.02 0.02 0.06 0.05 0.04 0.04 0.04 0.05 0.06 0.07 0.08 0.11 0.09 0.09 0.09 0.09 0.07 0.06 0.06 0.06 0.06 0.07 0.08 0.09 0.09 0.09 0.11 0.14 0.14 0.13 0.12 0.11 0.10 0.11 0.12 0.10 0.08 0.07 0.06 0.05 0.05 0.07 0.08
0.03 0.03 0.03 0.02 0.02 0.02 0.02 0.02 0.04 0.05 0.04 0.03 0.03 0.04 0.06 0.10 0.12 0.13 0.11 0.08 0.09 0.09 0.09 0.08 0.08 0.07 0.06 0.06 0.07 0.08 0.08 0.09 0.10 0.11 0.13 0.15 0.16 0.14 0.12 0.11 0.11 0.12 0.12 0.12 0.12 0.10 0.09 0.09 0.09
MSLP
1015.42 1015.93 1016.65 1017.46 1018.22 1018.80 1019.12 1019.13 1018.85 1018.38 1017.82 1017.30 1016.91 1016.69 1016.63 1016.69 1016.79 1016.85 1016.82 1016.70 1016.53 1016.37 1016.29 1016.35 1016.57 1016.93 1017.38 1017.85 1018.26 1018.58 1018.79 1018.89 1018.95 1019.01 1019.11 1019.28 1019.50 1019.75 1019.98 1020.17 1020.28 1020.31 1020.28 1020.23 1020.19 1020.18 1020.22 1020.30 1020.42
1015.94 1016.53 1017.27 1018.03 1018.68 1019.11 1019.23 1019.04 1018.58 1017.94 1017.27 1016.67 1016.23 1016.01 1015.97 1016.06 1016.20 1016.32 1016.35 1016.31 1016.22 1016.14 1016.14 1016.26 1016.54 1016.93 1017.41 1017.88 1018.30 1018.63 1018.84 1018.97 1019.05 1019.15 1019.28 1019.48 1019.73 1019.99 1020.24 1020.42 1020.53 1020.55 1020.52 1020.46 1020.42 1020.42 1020.48 1020.59 1020.74
1016.55 1017.15 1017.83 1018.48 1018.97 1019.20 1019.12 1018.74 1018.12 1017.38 1016.64 1016.02 1015.60 1015.40 1015.40 1015.53 1015.71 1015.87 1015.96 1015.98 1015.96 1015.95 1016.02 1016.22 1016.55 1016.98 1017.48 1017.97 1018.39 1018.72 1018.94 1019.08 1019.18 1019.29 1019.44 1019.65 1019.90 1020.16 1020.40 1020.57 1020.66 1020.68 1020.64 1020.59 1020.57 1020.59 1020.68 1020.83 1021.02
1017.20 1017.77 1018.35 1018.84 1019.13 1019.14 1018.86 1018.32 1017.60 1016.80 1016.06 1015.47 1015.10 1014.95 1015.00 1015.17 1015.38 1015.56 1015.68 1015.74 1015.78 1015.83 1015.97 1016.22 1016.60 1017.07 1017.58 1018.08 1018.50 1018.83 1019.06 1019.21 1019.32 1019.44 1019.60 1019.81 1020.05 1020.30 1020.51 1020.67 1020.74 1020.76 1020.72 1020.69 1020.69 1020.75 1020.88 1021.08 1021.32
1017.85 1018.35 1018.81 1019.11 1019.19 1019.01 1018.56 1017.90 1017.12 1016.33 1015.63 1015.11 1014.82 1014.73 1014.83 1015.02 1015.24 1015.43 1015.56 1015.64 1015.70 1015.81 1015.99 1016.29 1016.69 1017.18 1017.70 1018.19 1018.61 1018.94 1019.17 1019.33 1019.46 1019.59 1019.76 1019.97 1020.21 1020.44 1020.64 1020.78 1020.85 1020.86 1020.84 1020.82 1020.85 1020.95 1021.13 1021.37 1021.65
1018.43 1018.85 1019.17 1019.30 1019.20 1018.86 1018.29 1017.56 1016.77 1016.03 1015.41 1014.99 1014.78 1014.76 1014.89 1015.09 1015.30 1015.47 1015.59 1015.67 1015.75 1015.88 1016.09 1016.40 1016.82 1017.31 1017.82 1018.29 1018.70 1019.02 1019.25 1019.43 1019.59 1019.76 1019.95 1020.18 1020.43 1020.65 1020.85 1020.97 1021.04 1021.05 1021.05 1021.06 1021.12 1021.25 1021.45 1021.72 1022.03
1018.87 1019.21 1019.40 1019.39 1019.15 1018.69 1018.05 1017.31 1016.56 1015.89 1015.38 1015.06 1014.94 1014.98 1015.12 1015.32 1015.50 1015.64 1015.74 1015.81 1015.89 1016.03 1016.25 1016.57 1016.98 1017.45 1017.92 1018.37 1018.75 1019.06 1019.31 1019.52 1019.72 1019.94 1020.18 1020.45 1020.72 1020.96 1021.16 1021.29 1021.35 1021.37 1021.38 1021.41 1021.49 1021.64 1021.86 1022.14 1022.46
1019.14 1019.39 1019.48 1019.36 1019.02 1018.49 1017.83 1017.11 1016.43 1015.86 1015.46 1015.24 1015.18 1015.26 1015.41 1015.59 1015.74 1015.85 1015.92 1015.98 1016.07 1016.22 1016.45 1016.77 1017.16 1017.59 1018.03 1018.43 1018.79 1019.09 1019.35 1019.61 1019.86 1020.15 1020.45 1020.77 1021.08 1021.36 1021.57 1021.70 1021.77 1021.80 1021.82 1021.85 1021.94 1022.10 1022.32 1022.60 1022.90
1019.23 1019.41 1019.40 1019.20 1018.79 1018.23 1017.58 1016.91 1016.31 1015.84 1015.53 1015.39 1015.39 1015.49 1015.63 1015.78 1015.90 1015.99 1016.05 1016.13 1016.24 1016.41 1016.66 1016.98 1017.35 1017.75 1018.14 1018.50 1018.83 1019.13 1019.41 1019.70 1020.02 1020.37 1020.75 1021.13 1021.49 1021.79 1022.02 1022.17 1022.25 1022.28 1022.30 1022.34 1022.43 1022.58 1022.79 1023.05 1023.32
1019.20 1019.29 1019.21 1018.94 1018.49 1017.91 1017.27 1016.66 1016.13 1015.74 1015.51 1015.42 1015.45 1015.55 1015.68 1015.80 1015.90 1015.97 1016.05 1016.16 1016.31 1016.53 1016.82 1017.16 1017.54 1017.92 1018.28 1018.61 1018.91 1019.20 1019.50 1019.83 1020.20 1020.61 1021.05 1021.48 1021.88 1022.22 1022.47 1022.63 1022.71 1022.75 1022.77 1022.81 1022.89 1023.03 1023.22 1023.45 1023.70
1019.11 1019.13 1018.97 1018.63 1018.13 1017.54 1016.92 1016.34 1015.87 1015.54 1015.36 1015.30 1015.34 1015.42 1015.52 1015.61 1015.69 1015.77 1015.87 1016.03 1016.24 1016.53 1016.89 1017.28 1017.68 1018.07 1018.42 1018.74 1019.03 1019.32 1019.63 1019.99 1020.39 1020.85 1021.32 1021.79 1022.21 1022.56 1022.82 1022.99 1023.08 1023.13 1023.16 1023.20 1023.28 1023.41 1023.59 1023.80 1024.01
1019.09 1019.02 1018.78 1018.37 1017.82 1017.20 1016.57 1016.02 1015.58 1015.28 1015.13 1015.08 1015.10 1015.16 1015.22 1015.27 1015.33 1015.40 1015.53 1015.73 1016.02 1016.39 1016.82 1017.28 1017.74 1018.17 1018.54 1018.88 1019.18 1019.48 1019.80 1020.17 1020.59 1021.05 1021.54 1022.01 1022.43 1022.78 1023.04 1023.21 1023.31 1023.37 1023.42 1023.48 1023.57 1023.71 1023.88 1024.07 1024.27
1019.21 1019.07 1018.74 1018.24 1017.62 1016.96 1016.31 1015.76 1015.34 1015.07 1014.93 1014.88 1014.88 1014.89 1014.90 1014.90 1014.91 1014.96 1015.08 1015.31 1015.64 1016.08 1016.59 1017.13 1017.67 1018.17 1018.60 1018.98 1019.32 1019.65 1019.98 1020.35 1020.77 1021.22 1021.68 1022.12 1022.52 1022.85 1023.10 1023.27 1023.39 1023.48 1023.56 1023.65 1023.77 1023.93 1024.10 1024.30 1024.49
1019.56 1019.33 1018.91 1018.32 1017.62 1016.90 1016.23 1015.68 1015.28 1015.03 1014.91 1014.86 1014.84 1014.81 1014.76 1014.68 1014.61 1014.58 1014.65 1014.85 1015.18 1015.65 1016.20 1016.81 1017.43 1018.01 1018.53 1018.99 1019.39 1019.76 1020.12 1020.50 1020.90 1021.31 1021.73 1022.12 1022.48 1022.77 1023.01 1023.19 1023.33 1023.46 1023.59 1023.73 1023.89 1024.08 1024.28 1024.49 1024.68
1020.13 1019.82 1019.29 1018.61 1017.84 1017.07 1016.39 1015.85 1015.48 1015.28 1015.19 1015.17 1015.14 1015.08 1014.95 1014.77 1014.58 1014.43 1014.38 1014.47 1014.73 1015.15 1015.70 1016.34 1017.01 1017.67 1018.29 1018.84 1019.33 1019.76 1020.17 1020.56 1020.94 1021.32 1021.69 1022.03 1022.33 1022.59 1022.82 1023.01 1023.19 1023.36 1023.55 1023.75 1023.97 1024.20 1024.43 1024.65 1024.84
1020.88 1020.48 1019.86 1019.09 1018.25 1017.45 1016.78 1016.28 1015.97 1015.85 1015.84 1015.87 1015.86 1015.77 1015.58 1015.29 1014.94 1014.62 1014.38 1014.29 1014.39 1014.68 1015.15 1015.76 1016.45 1017.16 1017.86 1018.51 1019.09 1019.61 1020.08 1020.50 1020.88 1021.23 1021.56 1021.85 1022.12 1022.35 1022.57 1022.78 1023.00 1023.23 1023.48 1023.74 1024.02 1024.29 1024.55 1024.78 1024.98
1021.73 1021.23 1020.52 1019.68 1018.80 1017.99 1017.35 1016.93 1016.72 1016.71 1016.81 1016.93 1016.98 1016.90 1016.65 1016.25 1015.74 1015.20 1014.73 1014.39 1014.25 1014.34 1014.65 1015.15 1015.80 1016.52 1017.27 1018.00 1018.68 1019.29 1019.82 1020.29 1020.70 1021.05 1021.35 1021.62 1021.86 1022.09 1022.31 1022.55 1022.81 1023.09 1023.40 1023.72 1024.04 1024.35 1024.63 1024.86 1025.06
1022.57 1021.99 1021.20 1020.30 1019.40 1018.62 1018.04 1017.71 1017.63 1017.76 1018.00 1018.24 1018.38 1018.33 1018.06 1017.56 1016.90 1016.15 1015.42 1014.81 1014.40 1014.22 1014.31 1014.64 1015.17 1015.85 1016.60 1017.37 1018.11 1018.80 1019.41 1019.94 1020.39 1020.76 1021.08 1021.35 1021.59 1021.82 1022.07 1022.33 1022.63 1022.96 1023.31 1023.67 1024.02 1024.35 1024.64 1024.88 1025.06
1023.35 1022.68 1021.83 1020.90 1020.01 1019.27 1018.76 1018.54 1018.59 1018.87 1019.25 1019.62 1019.86 1019.88 1019.62 1019.08 1018.30 1017.38 1016.43 1015.55 1014.85 1014.39 1014.21 1014.32 1014.68 1015.24 1015.93 1016.69 1017.47 1018.21 1018.88 1019.47 1019.97 1020.39 1020.74 1021.04 1021.31 1021.57 1021.85 1022.14 1022.48 1022.83 1023.21 1023.59 1023.96 1024.29 1024.57 1024.80 1024.98
1024.03 1023.30 1022.41 1021.48 1020.62 1019.93 1019.50 1019.37 1019.52 1019.91 1020.40 1020.88 1021.22 1021.32 1021.11 1020.58 1019.76 1018.73 1017.62 1016.53 1015.59 1014.87 1014.42 1014.28 1014.43 1014.82 1015.39 1016.08 1016.82 1017.57 1018.27 1018.91 1019.46 1019.94 1020.34 1020.69 1021.01 1021.32 1021.63 1021.97 1022.32 1022.70 1023.09 1023.47 1023.83 1024.15 1024.42 1024.64 1024.81
1024.66 1023.90 1023.02 1022.12 1021.30 1020.66 1020.28 1020.20 1020.39 1020.81 1021.36 1021.89 1022.30 1022.47 1022.33 1021.86 1021.07 1020.03 1018.86 1017.66 1016.55 1015.63 1014.96 1014.58 1014.49 1014.67 1015.07 1015.62 1016.27 1016.97 1017.65 1018.31 1018.90 1019.43 1019.89 1020.31 1020.69 1021.05 1021.41 1021.78 1022.16 1022.54 1022.93 1023.30 1023.64 1023.94 1024.20 1024.41 1024.58
1025.32 1024.58 1023.75 1022.92 1022.16 1021.56 1021.19 1021.09 1021.23 1021.60 1022.09 1022.60 1023.01 1023.21 1023.15 1022.76 1022.07 1021.12 1020.00 1018.80 1017.64 1016.60 1015.77 1015.18 1014.87 1014.82 1015.00 1015.37 1015.87 1016.45 1017.07 1017.70 1018.30 1018.86 1019.39 1019.87 1020.32 1020.74 1021.15 1021.56 1021.96 1022.35 1022.73 1023.08 1023.40 1023.69 1023.94 1024.15 1024.34
1026.09 1025.44 1024.72 1023.99 1023.31 1022.74 1022.33 1022.13 1022.13 1022.33 1022.66 1023.03 1023.36 1023.54 1023.52 1023.24 1022.69 1021.90 1020.92 1019.83 1018.72 1017.67 1016.75 1016.02 1015.51 1015.24 1015.18 1015.32 1015.62 1016.04 1016.55 1017.10 1017.68 1018.26 1018.82 1019.37 1019.88 1020.38 1020.85 1021.29 1021.72 1022.12 1022.49 1022.84 1023.15 1023.43 1023.68 1023.90 1024.11
1027.05 1026.55 1026.00 1025.41 1024.81 1024.24 1023.76 1023.39 1023.18 1023.11 1023.17 1023.30 1023.44 1023.53 1023.51 1023.31 1022.91 1022.32 1021.54 1020.64 1019.67 1018.69 1017.77 1016.96 1016.30 1015.83 1015.54 1015.44 1015.51 1015.73 1016.09 1016.54 1017.06 1017.62 1018.21 1018.80 1019.38 1019.94 1020.47 1020.97 1021.43 1021.85 1022.24 1022.59 1022.90 1023.19 1023.45 1023.70 1023.93
1028.19 1027.90 1027.56 1027.13 1026.62 1026.06 1025.46 1024.89 1024.39 1023.99 1023.69 1023.50 1023.39 1023.31 1023.22 1023.07 1022.80 1022.40 1021.86 1021.18 1020.41 1019.56 1018.70 1017.87 1017.11 1016.47 1015.97 1015.64 1015.48 1015.50 1015.67 1015.99 1016.43 1016.96 1017.55 1018.18 1018.81 1019.44 1020.03 1020.58 1021.09 1021.55 1021.96 1022.33 1022.67 1022.98 1023.27 1023.55 1023.82
1029.45 1029.41 1029.29 1029.03 1028.62 1028.04 1027.34 1026.55 1025.74 1024.97 1024.29 1023.74 1023.32 1023.02 1022.81 1022.64 1022.46 1022.23 1021.89 1021.45 1020.88 1020.20 1019.44 1018.63 1017.82 1017.06 1016.39 1015.85 1015.48 1015.29 1015.29 1015.46 1015.81 1016.29 1016.87 1017.51 1018.19 1018.87 1019.53 1020.14 1020.70 1021.21 1021.66 1022.07 1022.45 1022.80 1023.13 1023.44 1023.76
1030.72 1030.92 1031.00 1030.89 1030.56 1029.97 1029.16 1028.18 1027.09 1025.99 1024.95 1024.05 1023.32 1022.78 1022.41 1022.18 1022.03 1021.90 1021.73 1021.47 1021.09 1020.57 1019.92 1019.17 1018.34 1017.50 1016.71 1016.01 1015.46 1015.09 1014.92 1014.96 1015.21 1015.62 1016.17 1016.82 1017.53 1018.26 1018.97 1019.64 1020.26 1020.82 1021.33 1021.79 1022.22 1022.61 1022.99 1023.35 1023.71
1031.86 1032.23 1032.46 1032.46 1032.18 1031.58 1030.69 1029.55 1028.26 1026.90 1025.59 1024.41 1023.42 1022.66 1022.13 1021.81 1021.64 1021.55 1021.47 1021.34 1021.09 1020.70 1020.16 1019.46 1018.65 1017.78 1016.90 1016.09 1015.40 1014.89 1014.58 1014.50 1014.65 1014.99 1015.51 1016.15 1016.86 1017.62 1018.37 1019.08 1019.76 1020.37 1020.94 1021.46 1021.94 1022.40 1022.83 1023.24 1023.64
1032.72 1033.16 1033.44 1033.48 1033.20 1032.59 1031.65 1030.44 1029.04 1027.55 1026.09 1024.74 1023.59 1022.68 1022.02 1021.60 1021.37 1021.28 1021.22 1021.15 1020.98 1020.67 1020.19 1019.55 1018.77 1017.89 1016.98 1016.10 1015.32 1014.70 1014.29 1014.11 1014.17 1014.45 1014.91 1015.52 1016.22 1016.98 1017.75 1018.49 1019.20 1019.86 1020.48 1021.05 1021.59 1022.10 1022.59 1023.06 1023.50
1033.21 1033.60 1033.82 1033.80 1033.48 1032.84 1031.89 1030.69 1029.30 1027.81 1026.34 1024.97 1023.77 1022.80 1022.08 1021.59 1021.30 1021.15 1021.07 1020.99 1020.83 1020.56 1020.12 1019.52 1018.77 1017.90 1016.98 1016.08 1015.25 1014.57 1014.08 1013.82 1013.80 1014.01 1014.41 1014.97 1015.64 1016.38 1017.13 1017.88 1018.61 1019.29 1019.94 1020.56 1021.15 1021.72 1022.27 1022.79 1023.28
Thickness
5688 5691 5691 5686 5671 5655 5658 5669 5677 5683 5690 5697 5700 5701 5702 5702 5701 5701 5711 5718 5720 5722 5723 5724 5724 5724 5725 5725 5725 5725 5724 5724 5724 5724 5723 5722 5722 5722 5721 5721 5721 5720 5720 5720 5719 5718 5718 5717 5716
5681 5683 5679 5668 5653 5646 5654 5665 5670 5680 5688 5691 5694 5696 5696 5697 5701 5704 5708 5712 5715 5717 5718 5719 5719 5719 5720 5720 5720 5720 5720 5720 5719 5719 5719 5718 5717 5717 5717 5717 5717 5716 5716 5715 5715 5714 5714 5713 5712
5673 5673 5662 5651 5643 5645 5656 5664 5668 5676 5681 5683 5684 5687 5688 5689 5695 5698 5703 5707 5709 5711 5712 5714 5714 5715 5715 5715 5715 5715 5715 5715 5714 5714 5714 5713 5713 5713 5712 5712 5712 5711 5711 5711 5710 5710 5708 5709 5708
5661 5655 5647 5640 5641 5647 5654 5659 5664 5668 5673 5674 5676 5677 5681 5686 5689 5693 5698 5701 5703 5704 5706 5708 5709 5709 5709 5709 5709 5709 5710 5709 5709 5709 5708 5707 5707 5707 5707 5706 5706 5706 5706 5706 5705 5705 5704 5704 5704
5648 5640 5633 5628 5636 5642 5647 5652 5658 5661 5662 5665 5668 5669 5673 5681 5686 5689 5692 5694 5696 5697 5699 5701 5703 5703 5703 5703 5703 5703 5704 5704 5703 5702 5701 5701 5700 5700 5700 5701 5701 5700 5700 5700 5700 5700 5699 5698 5699
5630 5627 5620 5622 5631 5636 5640 5645 5651 5651 5652 5656 5657 5660 5667 5674 5678 5682 5685 5687 5689 5691 5693 5694 5696 5697 5697 5697 5697 5697 5697 5697 5697 5696 5695 5694 5694 5694 5694 5694 5694 5694 5694 5695 5695 5694 5693 5693 5693
5618 5614 5614 5619 5621 5627 5634 5638 5640 5641 5643 5645 5649 5652 5660 5667 5671 5675 5678 5680 5682 5684 5686 5687 5689 5690 5690 5690 5690 5690 5690 5690 5690 5689 5688 5688 5687 5687 5687 5687 5687 5688 5688 5688 5689 5689 5688 5687 5687
5609 5606 5606 5607 5613 5620 5625 5630 5634 5634 5635 5640 5643 5644 5649 5658 5663 5667 5670 5672 5674 5677 5678 5679 5681 5682 5683 5682 5682 5683 5683 5682 5683 5682 5682 5681 5681 5680 5680 5680 5681 5681 5681 5681 5681 5682 5681 5680 5680
5604 5594 5595 5601 5605 5611 5616 5619 5623 5627 5629 5632 5635 5639 5646 5650 5654 5657 5660 5664 5665 5668 5668 5671 5673 5674 5674 5674 5674 5674 5675 5675 5675 5675 5674 5674 5673 5673 5672 5673 5673 5673 5674 5674 5674 5674 5674 5673 5673
5590 5583 5592 5598 5600 5602 5605 5608 5611 5616 5618 5622 5626 5632 5637 5641 5645 5647 5650 5653 5655 5657 5659 5662 5664 5665 5666 5666 5666 5666 5666 5666 5666 5667 5667 5666 5665 5666 5666 5665 5665 5666 5666 5666 5666 5666 5666 5665 5665
5581 5579 5586 5591 5593 5595 5595 5597 5601 5605 5608 5612 5616 5621 5627 5631 5634 5637 5640 5643 5646 5648 5649 5650 5653 5655 5656 5657 5657 5657 5657 5658 5658 5659 5659 5658 5657 5658 5658 5658 5658 5659 5659 5658 5658 5658 5658 5658 5658
5571 5574 5579 5582 5585 5586 5586 5588 5590 5594 5601 5607 5609 5613 5617 5620 5624 5627 5630 5633 5635 5637 5639 5641 5643 5645 5647 5648 5649 5649 5649 5649 5650 5650 5650 5650 5649 5650 5651 5651 5651 5652 5651 5651 5651 5651 5651 5650 5650
5562 5566 5571 5572 5574 5575 5577 5577 5579 5586 5593 5596 5600 5603 5607 5609 5613 5616 5620 5623 5625 5627 5629 5631 5633 5635 5637 5639 5640 5641 5641 5640 5641 5642 5642 5642 5642 5642 5643 5644 5645 5645 5644 5644 5644 5643 5643 5643 5643
5555 5557 5560 5563 5566 5568 5569 5570 5571 5581 5585 5586 5589 5592 5596 5599 5601 5604 5607 5609 5612 5615 5617 5620 5623 5625 5626 5628 5629 5631 5632 5632 5632 5633 5635 5635 5636 5636 5636 5637 5638 5638 5638 5638 5637 5636 5636 5635 5635
5549 5548 5551 5555 5557 5559 5560 5564 5566 5575 5574 5575 5578 5581 5585 5587 5589 5592 5595 5597 5600 5603 5606 5608 5613 5615 5616 5618 5619 5620 5622 5623 5624 5625 5627 5628 5628 5629 5630 5630 5631 5632 5632 5631 5630 5629 5629 5628 5628
5539 5536 5537 5546 5548 5551 5549 5553 5565 5563 5564 5564 5567 5570 5573 5576 5578 5581 5583 5586 5589 5591 5594 5598 5601 5605 5606 5607 5609 5610 5612 5614 5615 5616 5618 5620 5621 5622 5624 5623 5625 5625 5625 5624 5623 5623 5622 5621 5621
5522 5521 5525 5534 5539 5540 5539 5542 5556 5555 5554 5554 5557 5559 5562 5566 5568 5570 5573 5576 5578 5581 5584 5587 5590 5594 5596 5597 5598 5600 5602 5604 5606 5607 5609 5611 5613 5615 5617 5617 5617 5618 5618 5617 5617 5616 5615 5614 5613
5514 5512 5515 5519 5527 5529 5528 5533 5545 5547 5546 5545 5546 5548 5551 5555 5558 5560 5563 5566 5568 5570 5574 5577 5580 5584 5586 5588 5589 5590 5592 5595 5597 5599 5601 5603 5605 5607 5608 5610 5610 5610 5610 5609 5609 5608 5607 5606 5605
5510 5507 5506 5512 5517 5518 5520 5527 5536 5539 5538 5538 5539 5540 5542 5545 5549 5550 5552 5555 5558 5561 5564 5567 5570 5574 5576 5578 5579 5580 5582 5585 5588 5590 5592 5594 5596 5598 5599 5601 5602 5602 5602 5602 5601 5600 5598 5597 5597
5504 5501 5499 5505 5511 5512 5512 5520 5528 5530 5531 5533 5532 5532 5533 5536 5539 5541 5543 5544 5547 5552 5554 5558 5561 5565 5566 5568 5570 5571 5572 5575 5579 5580 5582 5585 5587 5589 5591 5592 5593 5593 5593 5593 5593 5592 5590 5589 5588
5498 5495 5495 5496 5501 5504 5504 5518 5525 5528 5527 5526 5525 5525 5526 5528 5528 5531 5532 5534 5537 5541 5544 5549 5552 5555 5556 5558 5559 5560 5561 5564 5566 5570 5573 5576 5578 5580 5582 5583 5584 5585 5586 5586 5585 5585 5584 5582 5579
5494 5497 5495 5493 5488 5487 5492 5500 5518 5517 5518 5520 5518 5517 5518 5519 5520 5521 5523 5525 5528 5531 5535 5539 5543 5546 5547 5547 5549 5551 5553 5554 5558 5561 5564 5566 5568 5570 5573 5575 5577 5578 5578 5578 5578 5578 5577 5575 5572
5489 5492 5489 5487 5481 5479 5483 5481 5507 5507 5510 5514 5513 5512 5512 5511 5512 5513 5514 5517 5520 5522 5525 5529 5533 5536 5537 5537 5539 5539 5542 5545 5547 5550 5554 5556 5559 5561 5564 5566 5568 5569 5570 5570 5570 5570 5570 5568 5566
5486 5484 5482 5474 5472 5473 5479 5476 5494 5497 5503 5508 5508 5507 5505 5504 5504 5505 5507 5509 5512 5514 5517 5521 5524 5526 5528 5528 5529 5529 5532 5534 5537 5541 5544 5548 5550 5552 5555 5557 5558 5559 5561 5562 5562 5562 5563 5561 5559
5478 5471 5466 5467 5459 5470 5478 5474 5487 5500 5498 5498 5498 5498 5497 5496 5496 5497 5499 5502 5504 5506 5509 5512 5515 5516 5518 5519 5521 5522 5524 5526 5529 5533 5535 5538 5541 5543 5545 5547 5549 5550 5551 5552 5553 5554 5554 5553 5551
5467 5466 5460 5461 5461 5467 5469 5472 5491 5495 5491 5490 5489 5488 5488 5488 5488 5490 5491 5493 5495 5497 5500 5503 5506 5508 5509 5510 5511 5513 5515 5517 5520 5524 5527 5529 5530 5533 5534 5537 5540 5541 5543 5544 5545 5545 5545 5543 5542
5462 5452 5454 5445 5439 5444 5461 5469 5483 5488 5486 5484 5483 5482 5480 5480 5481 5482 5484 5485 5486 5488 5491 5494 5497 5498 5499 5500 5503 5505 5507 5509 5512 5515 5517 5520 5521 5523 5525 5528 5530 5533 5534 5535 5536 5536 5535 5534 5533
5458 5450 5438 5438 5442 5449 5460 5464 5476 5480 5477 5476 5474 5472 5472 5472 5472 5474 5476 5477 5479 5480 5482 5484 5486 5489 5491 5493 5495 5498 5499 5501 5504 5505 5507 5509 5512 5515 5517 5520 5521 5523 5524 5525 5527 5527 5526 5525 5523
5450 5444 5436 5428 5430 5435 5444 5469 5477 5473 5470 5467 5466 5464 5464 5464 5465 5467 5469 5469 5470 5472 5474 5477 5479 5480 5482 5484 5487 5489 5490 5492 5494 5496 5498 5500 5503 5506 5510 5512 5513 5515 5515 5515 5517 5517 5516 5515 5513
5444 5440 5432 5435 5427 5417 5419 5453 5471 5464 5462 5459 5458 5458 5458 5458 5459 5460 5462 5462 5464 5466 5468 5470 5471 5472 5474 5476 5478 5479 5481 5483 5485 5487 5490 5492 5494 5498 5502 5504 5505 5506 5507 5507 5507 5508 5508 5506 5504